Weather History for Roseau, MN

Change the Weather History Date:

Monday, February 18, 2013

  Actual Average Record
Temperature  
Mean Temperature 16 °F -  
Max Temperature 30 °F 18 °F 45 °F (1954)
Min Temperature 1 °F 0 °F -48 °F (1966)
Degree Days  
Heating Degree Days 50    
Moisture  
Dew Point 7 °F    
Average Humidity 78    
Maximum Humidity 86    
Minimum Humidity 72    
Precipitation  
Precipitation 0.11 in - - ()
Sea Level Pressure  
Sea Level Pressure 29.74 in    
Wind  
Wind Speed 14 mph (North)    
Max Wind Speed 26 mph    
Max Gust Speed 34 mph    
Visibility 3 miles    
Events Snow    
Averages and records for this station are not official NWS values.
T = Trace of Precipitation, MM = Missing Value Source: NWS Daily Summary

Daily Weather History Graph

Daily Weather History Graph

Search for Another Location

Airport:

Trip Planner

Search our weather history database for the weather conditions in past years. The results will help you decide how hot, cold, wet, or windy it might be!

Date:

Astronomy

Feb. 18, 2013 Rise Set
Actual Time 7:25 AM CST 5:49 PM CST
Civil Twilight 6:52 AM CST 6:21 PM CST
Nautical Twilight 6:15 AM CST 6:58 PM CST
Astronomical Twilight 5:39 AM CST 7:34 PM CST
Moon 11:20 AM CST (2/18) 2:19 AM CST (2/18)
Length of Visible Light 11h 28m
Length of Day
10h 24m
First Quarter, 58% of the Moon is Illuminated
Feb 18
First Quarter
Feb 25
Full
Mar 4
Last Quarter
Mar 11
New
Mar 19
First Quarter

Hourly Weather History & Observations

Time (CST) Temp. Windchill Dew Point Humidity Pressure Visibility Wind Dir Wind Speed Gust Speed Precip Events Conditions
12:14 AM 30.2 °F 25.4 °F 24.8 °F 80% 29.50 in 1.2 mi South 4.6 mph - N/A Snow Light Snow
12:34 AM 30.2 °F 24.3 °F 24.8 °F 80% 29.50 in 0.8 mi SSW 5.8 mph - N/A Snow Snow
12:54 AM 28.4 °F 24.6 °F 24.8 °F 86% 29.49 in 0.8 mi South 3.5 mph - N/A Snow Snow
1:15 AM 28.4 °F - 24.8 °F 86% 29.49 in 1.2 mi Calm Calm - N/A Snow Light Snow
1:34 AM 28.4 °F - 24.8 °F 86% 29.48 in 1.8 mi Calm Calm - N/A Snow Light Snow
1:55 AM 28.4 °F - 24.8 °F 86% 29.48 in 1.8 mi Calm Calm - 0.03 in Snow Light Snow
2:14 AM 28.4 °F 24.6 °F 24.8 °F 86% 29.48 in 2.5 mi North 3.5 mph - 0.02 in Snow Light Snow
2:34 AM 28.4 °F - 24.8 °F 86% 29.48 in 2.5 mi Calm Calm - 0.05 in Snow Light Snow
3:14 AM 28.4 °F 23.3 °F 24.8 °F 86% 29.48 in 3.0 mi North 4.6 mph - 0.02 in   Haze
3:34 AM 28.4 °F 21.2 °F 24.8 °F 86% 29.48 in 5.0 mi North 6.9 mph - 0.02 in   Haze
3:54 AM 28.4 °F 19.1 °F 24.8 °F 86% 29.49 in 2.5 mi North 10.4 mph - 0.02 in Snow Light Snow
4:13 AM 28.4 °F 18.0 °F 23.0 °F 80% 29.49 in 2.0 mi North 12.7 mph - 0.01 in Snow Light Snow
4:34 AM 26.6 °F 14.3 °F 21.2 °F 80% 29.49 in 1.2 mi North 16.1 mph - 0.01 in Snow Light Snow
4:54 AM 24.8 °F 11.1 °F 21.2 °F 86% 29.49 in 1.2 mi North 18.4 mph 24.2 mph 0.01 in Snow Light Snow
5:14 AM 24.8 °F 10.3 °F 19.4 °F 80% 29.50 in 0.8 mi North 20.7 mph 27.6 mph N/A Snow Snow
5:34 AM 24.8 °F 10.7 °F 19.4 °F 80% 29.51 in 1.0 mi North 19.6 mph 26.5 mph N/A Snow Snow
5:54 AM 23.0 °F 8.0 °F 19.4 °F 86% 29.52 in 1.5 mi North 20.7 mph 24.2 mph N/A Snow Light Snow
6:14 AM 21.2 °F 5.6 °F 17.6 °F 86% 29.53 in 1.5 mi North 20.7 mph - N/A Snow Light Snow
6:34 AM 21.2 °F 4.9 °F 17.6 °F 86% 29.55 in 1.2 mi North 23.0 mph - N/A Snow Light Snow
6:54 AM 21.2 °F 5.6 °F 15.8 °F 80% 29.56 in 1.0 mi North 20.7 mph 29.9 mph N/A Snow Light Snow
7:14 AM 19.4 °F 1.8 °F 15.8 °F 86% 29.57 in 1.0 mi North 25.3 mph 28.8 mph N/A Snow Light Snow
7:34 AM 17.6 °F -0.3 °F 12.2 °F 79% 29.59 in 0.8 mi North 24.2 mph 28.8 mph N/A Snow Light Snow
7:54 AM 17.6 °F -0.3 °F 12.2 °F 79% 29.60 in 1.0 mi NNW 24.2 mph 28.8 mph N/A Snow Light Snow
8:14 AM 15.8 °F -1.9 °F 10.4 °F 79% 29.62 in 0.8 mi NNW 21.9 mph 32.2 mph N/A Snow Light Snow
8:34 AM 14.0 °F -5.5 °F 8.6 °F 79% 29.63 in 0.8 mi North 25.3 mph 33.4 mph N/A Snow Light Snow
8:54 AM 12.2 °F -8.2 °F 8.6 °F 85% 29.64 in 0.8 mi NNW 26.5 mph 33.4 mph N/A Snow Light Snow
9:14 AM 12.2 °F -7.1 °F 6.8 °F 79% 29.65 in 1.0 mi NNW 23.0 mph 29.9 mph N/A Snow Light Snow
9:34 AM 10.4 °F -9.9 °F 6.8 °F 85% 29.66 in 0.8 mi North 24.2 mph 33.4 mph N/A Snow Light Snow
9:54 AM 10.4 °F -9.9 °F 5.0 °F 79% 29.68 in 1.0 mi North 24.2 mph 32.2 mph N/A Snow Light Snow
10:14 AM 10.4 °F -9.1 °F 3.2 °F 73% 29.69 in 1.2 mi North 21.9 mph 29.9 mph N/A Snow Light Snow
10:35 AM 8.6 °F -13.1 °F 3.2 °F 79% 29.70 in 1.0 mi North 26.5 mph 33.4 mph N/A Snow Light Snow
10:54 AM 8.6 °F -12.3 °F 3.2 °F 79% 29.71 in 1.2 mi North 24.2 mph - N/A Snow Light Snow
11:15 AM 8.6 °F -12.7 °F 1.4 °F 73% 29.73 in 1.0 mi North 25.3 mph 32.2 mph N/A Snow Light Snow
11:34 AM 8.6 °F -11.4 °F 1.4 °F 73% 29.74 in 1.2 mi North 21.9 mph 34.5 mph N/A Snow Light Snow
11:54 AM 8.6 °F -13.1 °F 1.4 °F 73% 29.75 in 1.5 mi North 26.5 mph 29.9 mph N/A Snow Light Snow
12:14 PM 8.6 °F -10.5 °F 1.4 °F 73% 29.76 in 1.8 mi North 19.6 mph - N/A   Haze
12:34 PM 8.6 °F -12.3 °F 1.4 °F 73% 29.76 in 1.5 mi North 24.2 mph 28.8 mph N/A Snow Light Snow
12:54 PM 8.6 °F -11.4 °F 1.4 °F 73% 29.77 in 1.8 mi North 21.9 mph 28.8 mph N/A Snow Light Snow
1:14 PM 8.6 °F -12.7 °F 1.4 °F 73% 29.78 in 1.5 mi NNW 25.3 mph 29.9 mph N/A   Haze
1:34 PM 8.6 °F -10.5 °F 1.4 °F 73% 29.79 in 2.5 mi North 19.6 mph - N/A   Haze
1:54 PM 8.6 °F -10.5 °F 1.4 °F 73% 29.80 in 1.5 mi NNW 19.6 mph - N/A Snow Light Snow
2:14 PM 8.6 °F -11.9 °F 1.4 °F 73% 29.81 in 1.5 mi NNW 23.0 mph - N/A   Haze
2:34 PM 8.6 °F -11.0 °F 1.4 °F 73% 29.82 in 2.5 mi NNW 20.7 mph - N/A   Haze
2:54 PM 8.6 °F -12.3 °F 1.4 °F 73% 29.83 in 3.0 mi North 24.2 mph 31.1 mph N/A   Haze
3:14 PM 8.6 °F -13.1 °F 1.4 °F 73% 29.83 in 3.0 mi North 26.5 mph 29.9 mph N/A   Haze
3:34 PM 8.6 °F -11.9 °F 1.4 °F 73% 29.84 in 4.0 mi NNW 23.0 mph 28.8 mph N/A   Haze
3:54 PM 8.6 °F -10.5 °F 1.4 °F 73% 29.86 in 4.0 mi NNW 19.6 mph - N/A   Haze
4:14 PM 8.6 °F -11.0 °F 1.4 °F 73% 29.87 in 3.0 mi NNW 20.7 mph 27.6 mph N/A   Haze
4:34 PM 8.6 °F -9.5 °F 1.4 °F 73% 29.88 in 5.0 mi North 17.3 mph - N/A   Haze
4:55 PM 6.8 °F -12.9 °F -0.4 °F 72% 29.89 in 3.0 mi North 19.6 mph 31.1 mph N/A   Haze
5:14 PM 6.8 °F -15.1 °F -0.4 °F 72% 29.89 in 2.5 mi North 25.3 mph 32.2 mph N/A   Haze
5:34 PM 6.8 °F -14.3 °F -0.4 °F 72% 29.91 in 3.0 mi NNW 23.0 mph - N/A   Haze
5:55 PM 6.8 °F -13.4 °F -0.4 °F 72% 29.93 in 5.0 mi North 20.7 mph 25.3 mph N/A   Haze
6:14 PM 5.0 °F -17.5 °F -0.4 °F 78% 29.94 in 5.0 mi North 25.3 mph 28.8 mph N/A   Haze
6:34 PM 5.0 °F -16.2 °F -2.2 °F 72% 29.95 in 7.0 mi North 21.9 mph 27.6 mph N/A   Overcast
6:55 PM 5.0 °F -15.2 °F -2.2 °F 72% 29.95 in 5.0 mi North 19.6 mph 27.6 mph N/A   Haze
7:14 PM 3.2 °F -17.6 °F -2.2 °F 78% 29.96 in 7.0 mi North 19.6 mph 29.9 mph N/A   Scattered Clouds
7:34 PM 3.2 °F -17.6 °F -2.2 °F 78% 29.97 in 7.0 mi North 19.6 mph 25.3 mph N/A   Clear
7:54 PM 3.2 °F -16.5 °F -2.2 °F 78% 29.98 in 10.0 mi NNW 17.3 mph - N/A   Clear
8:14 PM 3.2 °F -15.9 °F -4.0 °F 72% 29.98 in 10.0 mi North 16.1 mph - N/A   Clear
8:34 PM 3.2 °F -17.1 °F -2.2 °F 78% 29.98 in 10.0 mi North 18.4 mph 23.0 mph N/A   Scattered Clouds
8:54 PM 3.2 °F -18.1 °F -2.2 °F 78% 29.99 in 7.0 mi North 20.7 mph 26.5 mph N/A   Mostly Cloudy
9:14 PM 3.2 °F -16.5 °F -2.2 °F 78% 29.99 in 7.0 mi North 17.3 mph - N/A   Overcast
9:34 PM 3.2 °F -16.5 °F -2.2 °F 78% 30.00 in 10.0 mi North 17.3 mph - N/A   Overcast
9:54 PM 3.2 °F -17.1 °F -4.0 °F 72% 30.01 in 7.0 mi North 18.4 mph 28.8 mph N/A   Overcast
10:14 PM 3.2 °F -17.6 °F -4.0 °F 72% 30.01 in 7.0 mi North 19.6 mph 28.8 mph N/A   Overcast
10:34 PM 3.2 °F -16.5 °F -4.0 °F 72% 30.02 in 5.0 mi North 17.3 mph - N/A   Haze
11:14 PM 1.4 °F -20.5 °F -5.8 °F 72% 30.04 in 5.0 mi North 20.7 mph 26.5 mph N/A   Haze
11:34 PM 1.4 °F -21.0 °F -5.8 °F 72% 30.05 in 7.0 mi North 21.9 mph 26.5 mph N/A   Overcast
11:54 PM 1.4 °F -21.0 °F -5.8 °F 72% 30.06 in 7.0 mi North 21.9 mph 26.5 mph N/A   Overcast